Sterling, IL

8:57 PM CST on November 16, 2019 (GMT -0600)
Whiteside County-Bittorf

Weather History for KSQI - September, 2019

Change the Weather History Date:

Sunday, September 29, 2019

  Actual Average Record
Temperature  
Mean Temperature 62 °F -  
Max Temperature 69 °F 67 °F 87 °F (2002)
Min Temperature 55 °F 44 °F 32 °F (2003)
Degree Days  
Heating Degree Days 3    
Growing Degree Days 12 (Base 50)    
Moisture  
Dew Point 63 °F    
Average Humidity 98    
Maximum Humidity 100    
Minimum Humidity 93    
Precipitation  
Precipitation 0.00 in - - ()
Sea Level Pressure  
Sea Level Pressure 29.91 in    
Wind  
Wind Speed 8 mph ()    
Max Wind Speed 13 mph    
Max Gust Speed -    
Visibility 5.6 miles    
Events Fog , Rain , Thunderstorm    
Averages and records for this station are not official NWS values.
T = Trace of Precipitation, MM = Missing Value Source: Averaged Metar Reports

Daily Weather History Graph

Daily Weather History Graph

Search for Another Location

Airport or City:

Astronomy

Sep. 29, 2019 Rise Set
Actual Time 6:53 AM CDT 6:44 PM CDT
Civil Twilight 6:25 AM CDT 7:11 PM CDT
Nautical Twilight 5:53 AM CDT 7:44 PM CDT
Astronomical Twilight 5:20 AM CDT 8:16 PM CDT
Moon 7:44 AM CDT (9/29) 7:44 PM CDT (9/29)
Length of Visible Light 12h 46m
Length of Day
11h 50m
New Moon, 1% of the Moon is Illuminated
Sep 29
New Moon
Oct 5
First Quarter
Oct 13
Full
Oct 21
Last Quarter
Oct 27
New

Hourly Weather History & Observations

Time (CDT) Temp. Dew Point Humidity Pressure Visibility Wind Dir Wind Speed Gust Speed Precip Events Conditions
12:24 AM 55.4 °F 53.6 °F 94% 30.17 in 10.0 mi ENE 10.4 mph - N/A   Overcast
12:44 AM 55.4 °F 53.6 °F 94% 30.16 in 10.0 mi ENE 9.2 mph - N/A Rain , Thunderstorm Light Thunderstorms and Rain
12:56 AM 55.0 °F 53.1 °F 93% 29.76 in 10.0 mi ENE 8.1 mph - N/A Rain , Thunderstorm Light Rain
1:24 AM 55.4 °F 53.6 °F 94% 30.15 in 10.0 mi NE 8.1 mph - N/A Rain Light Rain
1:56 AM 55.9 °F 54.0 °F 93% 29.77 in 10.0 mi North 5.8 mph - N/A Rain Light Rain
2:56 AM 55.9 °F 55.0 °F 97% 29.74 in 10.0 mi ENE 8.1 mph - N/A   Overcast
3:56 AM 57.0 °F 57.0 °F 100% 29.71 in 10.0 mi ENE 9.2 mph - N/A Rain Light Rain
4:35 AM 59.0 °F 57.2 °F 94% 30.11 in 10.0 mi ENE 10.4 mph - N/A Rain Light Rain
4:56 AM 59.0 °F 57.9 °F 96% 29.72 in 10.0 mi NE 8.1 mph - N/A   Overcast
5:56 AM 60.1 °F 60.1 °F 100% 29.73 in 10.0 mi ENE 11.5 mph - N/A   Overcast
6:56 AM 61.0 °F 61.0 °F 100% 30.12 in 10.0 mi ENE 11.5 mph - N/A   Overcast
7:56 AM 62.1 °F 61.0 °F 96% 30.12 in 2.5 mi East 10.4 mph - N/A Rain Light Rain
8:03 AM 62.6 °F 60.8 °F 94% 30.12 in 3.0 mi East 10.4 mph - N/A Rain Light Rain
8:15 AM 62.6 °F 62.6 °F 100% - 2.5 mi East 9.2 mph - N/A Rain Light Rain
8:23 AM 62.6 °F 62.6 °F 100% 30.12 in 3.0 mi East 12.7 mph - N/A Rain Light Rain
8:56 AM 63.0 °F 63.0 °F 100% 29.73 in 6.0 mi East 9.2 mph - N/A   Overcast
9:20 AM 64.4 °F 62.6 °F 94% 30.13 in 9.0 mi East 9.2 mph - N/A   Overcast
9:56 AM 64.9 °F 64.0 °F 97% 29.73 in 10.0 mi East 9.2 mph - N/A   Overcast
10:56 AM 64.9 °F 64.9 °F 100% 29.73 in 9.0 mi East 10.4 mph - N/A   Overcast
11:19 AM 64.4 °F 64.4 °F 100% 30.12 in 4.0 mi East 8.1 mph - N/A Rain Light Rain
11:36 AM 66.2 °F 64.4 °F 94% 30.13 in 2.5 mi East 8.1 mph - N/A Rain Light Rain
11:43 AM 64.4 °F 64.4 °F 100% 30.13 in 4.0 mi East 8.1 mph - N/A Rain Light Rain
11:56 AM 66.0 °F 64.9 °F 96% 29.73 in 4.0 mi East 6.9 mph - N/A   Overcast
12:56 PM 66.0 °F 66.0 °F 100% 29.73 in 6.0 mi ESE 5.8 mph - N/A   Overcast
1:56 PM 66.9 °F 66.9 °F 100% 29.70 in 6.0 mi East 6.9 mph - N/A   Overcast
2:56 PM 68.0 °F 66.9 °F 96% 29.69 in 8.0 mi East 6.9 mph - N/A   Overcast
3:34 PM 68.0 °F 66.2 °F 94% 30.08 in 8.0 mi East 8.1 mph - N/A   Overcast
3:56 PM 68.0 °F 66.9 °F 96% 29.69 in 8.0 mi East 5.8 mph - N/A   Overcast
4:56 PM 69.1 °F 68.0 °F 96% 29.68 in 5.0 mi ESE 5.8 mph - N/A Rain Light Rain
5:56 PM 69.1 °F 68.0 °F 96% 29.65 in 5.0 mi East 9.2 mph - N/A   Overcast
6:11 PM 69.8 °F 68.0 °F 94% 30.05 in 4.0 mi East 6.9 mph - N/A   Overcast
6:53 PM 68.0 °F 68.0 °F 100% 30.06 in 5.0 mi East 5.8 mph - N/A   Overcast
6:56 PM 68.0 °F 68.0 °F 100% 29.66 in 5.0 mi East 8.1 mph - N/A   Overcast
7:56 PM 68.0 °F 66.9 °F 96% 29.68 in 7.0 mi East 8.1 mph - N/A   Overcast
8:26 PM 68.0 °F 66.2 °F 94% 30.08 in 6.0 mi East 8.1 mph - N/A   Overcast
8:56 PM 66.9 °F 66.9 °F 100% 29.68 in 4.0 mi East 5.8 mph - N/A   Overcast
9:44 PM 66.2 °F 66.2 °F 100% 30.08 in 2.5 mi East 6.9 mph - N/A   Overcast
9:56 PM 66.9 °F 66.9 °F 100% 29.68 in 2.0 mi East 5.8 mph - N/A   Overcast
10:17 PM 66.2 °F 66.2 °F 100% 30.07 in 1.5 mi East 6.9 mph - N/A   Overcast
10:42 PM 66.2 °F 66.2 °F 100% 30.07 in 1.0 mi East 6.9 mph - N/A   Overcast
10:56 PM 66.9 °F 66.9 °F 100% 29.67 in 1.0 mi East 6.9 mph - N/A   Overcast
11:08 PM 66.2 °F 66.2 °F 100% 30.07 in 1.2 mi East 6.9 mph - N/A   Overcast
11:21 PM 66.2 °F 66.2 °F 100% 30.07 in 1.0 mi East 6.9 mph - N/A   Overcast
11:35 PM 66.2 °F 66.2 °F 100% 30.07 in 0.8 mi East 5.8 mph - N/A   Overcast
11:47 PM 66.2 °F 66.2 °F 100% 30.07 in 0.5 mi East 5.8 mph - N/A Fog Fog
11:56 PM 66.9 °F 66.9 °F 100% 29.67 in 0.5 mi East 5.8 mph - N/A Fog Fog